STARLINK-35449

Last updated on Tue Dec 16 2025 00:02:05 GMT+0000 (Coordinated Universal Time)

1 66459U 25262D 25349.23414234 .00047436 00000+0 11336-2 0 9992 2 66459 43.0018 57.1497 0001367 261.0246 99.0456 15.40759308 5942
UTC large
Height (km)
Speed (km/s)
/
Latitude / Longitude
Inclination (degrees)
Orbital Period (minutes)
Azimuth
Elevation
Range (km)
Doppler Factor

Next 0 passes for location: London (51.5072 / 0.1276)

Sorry there are no passes over London.